Flag for Iran Weather past 2 weeks in Esfahãn, Iran

Now
70 °F

Clear.


Feels Like: 70 °F
Forecast: 51 / 91 °F
Wind: 5 mph from South

Location: Esfahan

Current Time: Sep 5, 2015 at 3:48:43 AM

Latest Report: Sep 5, 2015 at 3:00 AM


Visibility: 10 mi

Pressure: 30.15 "Hg (25.11 "Hg at 1576m altitude)

Humidity: 21%

Dew point: 28 °F

Location of EsfahãnLocation

Historic Weather in Esfahãn — Graph

°F

Esfahãn temperature yesterday

Maximum temperature yesterday: 88 °F (at 3:00 PM)
Minimum temperature yesterday: 54 °F (at 7:30 AM)
Average temperature yesterday: 74 °F

Past Weeks' High & Low Weather Summary

 TemperatureHumidityPressure
High100 °F (Aug 23, 5:00 PM)48% (Sep 3, 6:00 AM)30.21 "Hg (Sep 3, 6:00 AM)
Low54 °F (Sep 4, 7:30 AM)2% (Aug 24, 5:30 PM)29.80 "Hg (Aug 23, 5:00 PM)
Average79 °F18%30.01 "Hg
* Reported Aug 21 2:30 AM — Sep 5 2:30 AM, Esfahãn, Weather by CustomWeather, © 2015

Note: Actual official high and low records may vary slightly from our data, if they occured in-between our weather recording intervals... More about our weather records

Advertising

Esfahãn weather history for previous 24 hours

 ConditionsComfort  
Time TempWeatherWind HumidityBarometerVisibility
2:30 AM
Sat, Sep 5
70 °FClear.7 mph21%30.15 "Hg10 mi
2:00 AM70 °FClear.7 mph21%30.15 "Hg10 mi
1:30 AM70 °FClear.9 mph21%30.15 "Hg10 mi
1:00 AM70 °FClear.7 mph20%30.15 "Hg10 mi
12:30 AM70 °FClear.7 mph20%30.15 "Hg10 mi
12:00 AM70 °FClear.7 mph20%30.15 "Hg10 mi
11:30 PM
Fri, Sep 4
72 °FClear.7 mph19%30.15 "Hg10 mi
11:00 PM73 °FClear.7 mph16%30.15 "Hg10 mi
10:30 PM73 °FClear.9 mph16%30.15 "Hg10 mi
10:00 PM75 °FClear.7 mph16%30.12 "Hg10 mi
9:30 PM73 °FClear.9 mph17%30.12 "Hg10 mi
9:00 PM77 °FClear.7 mph15%30.12 "Hg10 mi
8:30 PM77 °FSunny.No wind15%30.09 "Hg10 mi
8:00 PM79 °FSunny.5 mph15%30.09 "Hg10 mi
7:30 PM82 °FSunny.7 mph13%30.09 "Hg10 mi
7:00 PM84 °FSunny.9 mph11%30.09 "Hg10 mi
6:30 PM86 °FSunny.9 mph11%30.09 "Hg10 mi
6:00 PM86 °FSunny.5 mph11%30.09 "Hg10 mi
5:30 PM88 °FSunny.9 mph9%30.09 "Hg10 mi
5:00 PM88 °FSunny.12 mph9%30.09 "Hg10 mi
4:30 PM86 °FSunny.9 mph11%30.09 "Hg10 mi
4:00 PM88 °FSunny.5 mph10%30.09 "Hg10 mi
3:30 PM86 °FSunny.7 mph12%30.12 "Hg10 mi
3:00 PM88 °FSunny.9 mph11%30.12 "Hg10 mi
2:30 PM86 °FSunny.7 mph12%30.12 "Hg10 mi
2:00 PM86 °FSunny.7 mph11%30.15 "Hg10 mi
1:30 PM86 °FSunny.7 mph11%30.15 "Hg10 mi
1:00 PM82 °FSunny.5 mph13%30.15 "Hg10 mi
12:30 PM82 °FSunny.12 mph13%30.18 "Hg10 mi
12:00 PM81 °FSunny.12 mph16%30.18 "Hg10 mi
11:30 AM79 °FSunny.7 mph16%30.18 "Hg10 mi
11:00 AM77 °FSunny.7 mph22%30.18 "Hg10 mi
10:30 AM75 °FSunny.7 mph21%30.18 "Hg10 mi
10:00 AM73 °FSunny.7 mph23%30.21 "Hg10 mi
9:30 AM72 °FSunny.5 mph22%30.18 "Hg10 mi
9:00 AM68 °FSunny.5 mph24%30.18 "Hg10 mi
8:30 AM64 °FClear.7 mph32%30.18 "Hg4 mi
8:00 AM61 °FHaze.No wind34%30.18 "Hg3 mi
7:30 AM54 °FClear.No wind41%30.15 "Hg4 mi
7:00 AM57 °FClear.5 mph41%30.15 "Hg4 mi
6:30 AM57 °FClear.5 mph41%30.15 "Hg10 mi
6:00 AM55 °FClear.7 mph44%30.15 "Hg10 mi
5:30 AM57 °FClear.5 mph41%30.15 "Hg10 mi
5:00 AM63 °FClear.7 mph34%30.12 "Hg10 mi
4:30 AM66 °FClear.9 mph30%30.12 "Hg10 mi
4:00 AM68 °FClear.9 mph26%30.12 "Hg10 mi
3:30 AM68 °FClear.9 mph28%30.12 "Hg10 mi
3:00 AM68 °FClear.7 mph28%30.12 "Hg10 mi
Weather by CustomWeather, © 2015

See weather overviewHow to use our weather pages